User: anonymous   Login
Location: Unspecified
(0.0000°N, 0.0000°E)
Time: 14:06:26
(UTC+02:00)
Language:

ARIANE 5 R/B - Orbit

View from above orbital plane
View from above orbital plane
View from above satellite
View from above satellite

Ground track
Ground track

The orbit data is extracted from the following two-line orbital elements,

1 28379U 04027B   16239.86459539 -.00000193  00000-0 -45608-3 0  9993
2 28379   7.2364  64.3701 7291046 241.0468  42.3385  2.07922738 92015
Epoch (UTC): 26 August 2016 20:45:01
Eccentricity: 0.7291046
inclination: 7.2364°
perigee height: 646 km
apogee height: 38457 km
right ascension of ascending node: 64.3701°
argument of perigee: 241.0468°
revolutions per day: 2.07922738
mean anomaly at epoch: 42.3385°
orbit number at epoch: 9201

The dashed part of the orbit path shows where the satellite is in the earth's shadow,  

DLR